EA4TN Weather Reports


time (UTC)temp
F
wind
direction
speed
knots
gust
knots
rain 1hr
in
rain 24hr
in
rain mn
in
humidity
%
barometer
mb
20260905003516 82 87 2.6 4.3 0.00 0.00 0.00 25 1021.9
20260905002516 83 86 2.6 4.3 0.00 0.00 0.00 24 1021.9
20260905001516 83 66 3.5 5.2 0.00 0.00 0.00 24 1021.9
20260905000516 83 98 3.5 5.2 0.00 0.00 0.00 24 1021.9
20260904235515 83 80 2.6 5.2 0.00 0.00 0.00 25 1021.8
20260904234555 83 56 3.5 7.0 0.00 0.00 0.00 26 1021.6
20260904233515 83 54 4.3 7.0 0.00 0.00 0.00 25 1021.6
20260904232515 83 76 2.6 3.5 0.00 0.00 0.00 25 1021.6
20260904231555 83 77 1.7 4.3 0.00 0.00 0.00 24 1021.6
20260904230515 83 51 1.7 3.5 0.00 0.00 0.00 25 1021.6
20260904225516 83 58 1.7 5.2 0.00 0.00 0.00 26 1021.6
20260904224515 83 54 2.6 7.0 0.00 0.00 0.00 26 1021.5
20260904223515 83 79 0.9 3.5 0.00 0.00 0.00 26 1021.3
20260904222515 84 0.0 1.7 0.00 0.00 0.00 25 1021.3
20260904221515 85 79 0.9 1.7 0.00 0.00 0.00 25 1021.3
20260904220516 85 79 0.9 1.7 0.00 0.00 0.00 23 1021.3
20260904215555 86 79 0.9 1.7 0.00 0.00 0.00 23 1021.4
20260904214516 86 79 1.7 2.6 0.00 0.00 0.00 23 1021.3
20260904213515 86 66 1.7 6.1 0.00 0.00 0.00 23 1021.3
20260904212515 87 49 4.3 6.1 0.00 0.00 0.00 23 1021.4
20260904211555 87 49 4.3 6.1 0.00 0.00 0.00 22 1021.1
20260904210515 87 46 3.5 5.2 0.00 0.00 0.00 22 1021.0
20260904205516 88 248 1.7 2.6 0.00 0.00 0.00 22 1021.0
20260904204516 87 248 0.9 2.6 0.00 0.00 0.00 22 1020.7
20260904203516 88 248 0.0 1.7 0.00 0.00 0.00 23 1020.6
20260904202555 88 248 0.9 1.7 0.00 0.00 0.00 22 1020.5
20260904201515 87 248 0.9 0.9 0.00 0.00 0.00 22 1020.3
20260904200515 87 248 0.9 0.9 0.00 0.00 0.00 22 1020.2
20260904195516 88 0.0 0.0 0.00 0.00 0.00 23 1020.2
20260904194516 88 0.0 0.0 0.00 0.00 0.00 24 1019.9
20260904193516 89 0.0 0.0 0.00 0.00 0.00 21 1020.0
20260904192516 89 0.0 0.0 0.00 0.00 0.00 22 1019.9
20260904191515 90 0.0 0.0 0.00 0.00 0.00 21 1019.7
20260904190556 90 0.0 0.0 0.00 0.00 0.00 22 1019.7
20260904185515 90 0.0 0.0 0.00 0.00 0.00 22 1019.6
20260904184556 91 0.0 0.0 0.00 0.00 0.00 23 1019.6
20260904183516 93 0.0 0.0 0.00 0.00 0.00 20 1019.8
20260904182556 94 0.0 0.0 0.00 0.00 0.00 20 1020.0
20260904181515 96 0.0 0.0 0.00 0.00 0.00 17 1020.1
20260904180515 97 0.0 0.0 0.00 0.00 0.00 16 1020.2
20260904175516 98 248 0.0 3.5 0.00 0.00 0.00 15 1020.2
20260904174555 99 284 0.9 1.7 0.00 0.00 0.00 15 1020.3
20260904173516 100 285 0.9 4.3 0.00 0.00 0.00 14 1020.4
20260904172516 100 238 0.9 3.5 0.00 0.00 0.00 14 1020.4
20260904171516 100 255 0.9 2.6 0.00 0.00 0.00 14 1020.6
20260904170515 99 270 0.9 3.5 0.00 0.00 0.00 14 1020.4
20260904165516 98 271 0.9 2.6 0.00 0.00 0.00 16 1020.4
20260904164515 98 247 0.9 3.5 0.00 0.00 0.00 15 1020.3
20260904163515 98 250 1.7 4.3 0.00 0.00 0.00 15 1020.5
20260904162516 99 241 1.7 4.3 0.00 0.00 0.00 15 1020.6
20260904161516 99 239 2.6 4.3 0.00 0.00 0.00 14 1020.7
20260904160515 99 269 1.7 4.3 0.00 0.00 0.00 14 1020.7
20260904155515 99 269 2.6 5.2 0.00 0.00 0.00 14 1020.7
20260904154516 100 259 1.7 4.3 0.00 0.00 0.00 14 1020.8
20260904153556 100 278 1.7 3.5 0.00 0.00 0.00 14 1020.9
20260904152516 99 291 1.7 4.3 0.00 0.00 0.00 13 1020.9
20260904151516 100 251 1.7 5.2 0.00 0.00 0.00 13 1021.2
20260904150516 100 281 1.7 3.5 0.00 0.00 0.00 14 1021.3
20260904145516 100 289 1.7 3.5 0.00 0.00 0.00 13 1021.3
20260904144516 100 283 1.7 4.3 0.00 0.00 0.00 13 1021.6
20260904143516 100 282 1.7 3.5 0.00 0.00 0.00 13 1021.6
20260904142516 99 275 1.7 4.3 0.00 0.00 0.00 14 1021.7
20260904141616 99 278 1.7 3.5 0.00 0.00 0.00 13 1021.9
20260904140515 100 294 0.9 5.2 0.00 0.00 0.00 13 1022.0
20260904135515 100 296 2.6 5.2 0.00 0.00 0.00 13 1022.2
20260904134516 99 283 2.6 6.1 0.00 0.00 0.00 13 1022.4
20260904133515 99 277 2.6 7.0 0.00 0.00 0.00 14 1022.5
20260904132516 98 276 2.6 5.2 0.00 0.00 0.00 14 1022.4
20260904131516 98 289 1.7 4.3 0.00 0.00 0.00 14 1022.7
20260904130516 98 22 2.6 5.2 0.00 0.00 0.00 15 1022.9
20260904125516 99 42 0.9 5.2 0.00 0.00 0.00 15 1023.0
20260904124516 98 227 1.7 3.5 0.00 0.00 0.00 15 1023.1
20260904123516 98 182 0.9 2.6 0.00 0.00 0.00 14 1023.2
20260904122516 97 254 1.7 4.3 0.00 0.00 0.00 15 1023.3
20260904121516 95 276 0.9 2.6 0.00 0.00 0.00 16 1023.3
20260904120516 95 281 1.7 3.5 0.00 0.00 0.00 17 1023.4
20260904115556 95 316 1.7 2.6 0.00 0.00 0.00 16 1023.6
20260904114516 95 292 0.9 2.6 0.00 0.00 0.00 17 1023.8
20260904113516 94 249 0.9 1.7 0.00 0.00 0.00 19 1023.8
20260904112516 92 249 0.9 2.6 0.00 0.00 0.00 19 1023.8
20260904111556 92 267 0.9 2.6 0.00 0.00 0.00 19 1024.1
20260904110516 92 260 0.9 2.6 0.00 0.00 0.00 20 1024.3
20260904105556 91 179 0.9 1.7 0.00 0.00 0.00 20 1024.2
20260904104516 90 189 1.7 2.6 0.00 0.00 0.00 21 1024.4
20260904103516 88 261 0.9 2.6 0.00 0.00 0.00 22 1024.5
20260904102516 87 274 1.7 3.5 0.00 0.00 0.00 22 1024.5
20260904101516 86 269 0.9 3.5 0.00 0.00 0.00 23 1024.6
20260904100516 85 274 2.6 3.5 0.00 0.00 0.00 24 1024.7
20260904095516 85 269 0.9 3.5 0.00 0.00 0.00 24 1024.8
20260904094516 84 274 0.9 2.6 0.00 0.00 0.00 25 1024.7
20260904093516 83 266 0.9 1.7 0.00 0.00 0.00 25 1024.6
20260904092517 83 258 0.9 2.6 0.00 0.00 0.00 25 1024.5
20260904091516 81 63 0.9 2.6 0.00 0.00 0.00 25 1024.5
20260904090516 80 72 1.7 3.5 0.00 0.00 0.00 26 1024.3
20260904085516 79 72 2.6 3.5 0.00 0.00 0.00 27 1024.2
20260904084516 77 36 2.6 5.2 0.00 0.00 0.00 28 1023.9
20260904083556 76 50 2.6 7.0 0.00 0.00 0.00 28 1023.9
20260904082516 75 44 3.5 7.0 0.00 0.00 0.00 29 1023.8
20260904081616 74 45 2.6 7.0 0.00 0.00 0.00 29 1023.9
20260904080516 74 60 2.6 7.0 0.00 0.00 0.00 29 1023.8
20260904075516 73 68 2.6 7.0 0.00 0.00 0.00 29 1023.7
20260904074516 73 63 3.5 7.0 0.00 0.00 0.00 30 1023.7
20260904073516 72 66 2.6 6.1 0.00 0.00 0.00 31 1023.9
20260904072556 71 44 3.5 7.8 0.00 0.00 0.00 31 1023.7
20260904071516 71 53 2.6 5.2 0.00 0.00 0.00 33 1024.0
20260904070517 70 42 1.7 5.2 0.00 0.00 0.00 33 1024.0
20260904065516 70 49 3.5 5.2 0.00 0.00 0.00 33 1023.8
20260904064516 69 53 1.7 4.3 0.00 0.00 0.00 33 1023.8
20260904063556 69 40 2.6 6.1 0.00 0.00 0.00 33 1023.7
20260904062556 68 48 2.6 4.3 0.00 0.00 0.00 34 1023.6
20260904061516 68 47 2.6 5.2 0.00 0.00 0.00 33 1023.6
20260904060516 69 58 1.7 4.3 0.00 0.00 0.00 33 1023.7
20260904055516 69 73 1.7 3.5 0.00 0.00 0.00 33 1023.6
20260904054516 69 46 0.9 1.7 0.00 0.00 0.00 33 1023.5
20260904053516 68 50 1.7 3.5 0.00 0.00 0.00 34 1023.3
20260904052516 68 55 2.6 4.3 0.00 0.00 0.00 34 1023.2
20260904051516 68 78 1.7 2.6 0.00 0.00 0.00 34 1023.3
20260904050516 69 79 1.7 2.6 0.00 0.00 0.00 33 1023.3
20260904045516 69 78 0.9 4.3 0.00 0.00 0.00 32 1023.1
20260904044516 70 48 3.5 6.1 0.00 0.00 0.00 32 1023.1
20260904043516 70 53 3.5 6.1 0.00 0.00 0.00 31 1023.2
20260904042516 71 49 2.6 6.1 0.00 0.00 0.00 30 1023.2
20260904041516 71 54 3.5 8.7 0.00 0.00 0.00 30 1023.2
20260904040516 72 57 3.5 6.1 0.00 0.00 0.00 29 1023.2
20260904035516 72 63 4.3 9.6 0.00 0.00 0.00 28 1023.3
20260904034516 72 55 4.3 9.6 0.00 0.00 0.00 28 1023.3
20260904033556 72 45 6.1 8.7 0.00 0.00 0.00 29 1023.5
20260904032516 72 48 4.3 7.8 0.00 0.00 0.00 30 1023.5
20260904031556 72 43 3.5 5.2 0.00 0.00 0.00 30 1023.4
20260904030516 72 43 3.5 6.1 0.00 0.00 0.00 30 1023.3
20260904025516 72 43 3.5 7.0 0.00 0.00 0.00 29 1023.3
20260904024516 73 41 3.5 5.2 0.00 0.00 0.00 29 1023.2
20260904023516 73 42 2.6 5.2 0.00 0.00 0.00 29 1023.2
20260904022556 74 53 2.6 5.2 0.00 0.00 0.00 29 1023.3
20260904021556 74 68 1.7 5.2 0.00 0.00 0.00 28 1023.3
20260904020516 75 74 2.6 4.3 0.00 0.00 0.00 27 1023.4
20260904015516 76 64 3.5 6.1 0.00 0.00 0.00 27 1023.5
20260904014517 76 70 2.6 6.1 0.00 0.00 0.00 26 1023.6
20260904013616 76 65 2.6 5.2 0.00 0.00 0.00 26 1023.7
20260904012516 77 69 2.6 7.0 0.00 0.00 0.00 26 1023.8
20260904011516 77 58 3.5 7.8 0.00 0.00 0.00 25 1023.6
20260904010516 78 51 4.3 7.8 0.00 0.00 0.00 25 1023.8
20260904005516 78 60 4.3 7.8 0.00 0.00 0.00 25 1023.9
20260904004517 78 49 4.3 8.7 0.00 0.00 0.00 25 1023.8